Voltar ao catálogo

DELTA 1 R/B

AtivoLEO
NORAD 7735·ROCKET BODY·🇺🇸 United States

Lançado Apr 9, 1975 de Vandenberg Space Force Base

Loading…

Próximas Passagens (próximas 24 horas)

TLE

AtualizadoSource: Space-Track

Época: Sep 14, 2026, 06:34 UTC

1 07735U 75027B   26257.27377892 -.00000063  00000-0  48032-4 0  9991
2 07735 114.9725 180.1430 0051329 237.2654 122.3473 14.25620773671170

Acompanhe DELTA 1 R/B em tempo real com AllMySat

Download on the App Store